YKB YSBK-YSBK

Flight info

Callsign YKB
Flight time 0h 32m
Altitude 38000
Route HOW HIGH CAN IT GO
Aircraft DA42/L-SADE2E3FGHIJ3J4J5M1RWXY/LB1D1

Departure

Time 2026-05-05 11:27
Airport Sydney Bankstown Airport (YSBK)

Arrival

Time 2026-05-05 11:59
Airport Sydney Bankstown Airport (YSBK)
Time Latitude Longitude Altitude Speed Heading
2026-05-05 11:02 -33.33364 149.06441 32204 ft 136 kts 308°
2026-05-05 11:02 -33.32722 149.05606 32201 ft 136 kts 309°
2026-05-05 11:02 -33.32080 149.04770 32201 ft 137 kts 308°
2026-05-05 11:03 -33.31434 149.03925 32201 ft 137 kts 310°
2026-05-05 11:03 -33.30787 149.03078 32198 ft 138 kts 309°
2026-05-05 11:03 -33.30137 149.02226 32197 ft 138 kts 309°
2026-05-05 11:03 -33.29431 149.01439 32181 ft 143 kts 329°
2026-05-05 11:04 -33.28387 149.01494 32203 ft 168 kts 14°
2026-05-05 11:04 -33.27543 149.02599 32208 ft 197 kts 58°
2026-05-05 11:04 -33.27444 149.04274 32213 ft 215 kts 101°
2026-05-05 11:04 -33.27982 149.05959 32216 ft 218 kts 112°
2026-05-05 11:05 -33.28606 149.07632 32204 ft 220 kts 112°
2026-05-05 11:05 -33.29243 149.09308 32207 ft 221 kts 112°
2026-05-05 11:05 -33.29876 149.10985 32208 ft 221 kts 112°
2026-05-05 11:05 -33.30504 149.12657 32203 ft 221 kts 112°
2026-05-05 11:06 -33.31135 149.14339 32203 ft 222 kts 112°
2026-05-05 11:06 -33.31767 149.16022 32204 ft 222 kts 112°
2026-05-05 11:06 -33.32405 149.17720 32206 ft 222 kts 112°
2026-05-05 11:06 -33.33029 149.19392 32207 ft 223 kts 112°
2026-05-05 11:07 -33.33670 149.21109 32209 ft 223 kts 112°
2026-05-05 11:07 -33.34292 149.22784 32207 ft 224 kts 112°
2026-05-05 11:07 -33.34926 149.24487 32210 ft 224 kts 112°
2026-05-05 11:07 -33.35564 149.26190 32215 ft 224 kts 112°
2026-05-05 11:08 -33.36201 149.27898 32213 ft 224 kts 112°
2026-05-05 11:08 -33.36829 149.29578 32211 ft 224 kts 112°
2026-05-05 11:08 -33.37465 149.31284 32215 ft 224 kts 112°
2026-05-05 11:08 -33.38104 149.32983 32214 ft 224 kts 112°
2026-05-05 11:09 -33.38744 149.34691 32212 ft 224 kts 112°
2026-05-05 11:09 -33.39385 149.36388 32215 ft 225 kts 112°
2026-05-05 11:09 -33.40029 149.38110 32215 ft 225 kts 112°
2026-05-05 11:09 -33.40669 149.39821 32214 ft 225 kts 112°
2026-05-05 11:10 -33.41309 149.41525 32215 ft 225 kts 112°
2026-05-05 11:10 -33.41950 149.43233 32214 ft 225 kts 112°
2026-05-05 11:10 -33.42596 149.44955 32214 ft 225 kts 112°
2026-05-05 11:10 -33.43230 149.46657 32211 ft 225 kts 112°
2026-05-05 11:11 -33.43872 149.48377 32214 ft 225 kts 112°
2026-05-05 11:11 -33.44517 149.50102 32219 ft 226 kts 112°
2026-05-05 11:11 -33.45158 149.51814 32221 ft 226 kts 112°
2026-05-05 11:11 -33.45800 149.53522 32221 ft 226 kts 113°
2026-05-05 11:12 -33.46446 149.55255 32222 ft 226 kts 113°
2026-05-05 11:12 -33.47089 149.56975 32222 ft 227 kts 112°
2026-05-05 11:12 -33.47738 149.58707 32222 ft 227 kts 112°
2026-05-05 11:12 -33.48374 149.60417 32223 ft 227 kts 112°
2026-05-05 11:13 -33.49007 149.62141 32224 ft 226 kts 110°
2026-05-05 11:13 -33.49553 149.63895 32225 ft 225 kts 107°
2026-05-05 11:13 -33.50091 149.65695 32220 ft 225 kts 107°
2026-05-05 11:13 -33.50624 149.67471 32216 ft 224 kts 106°
2026-05-05 11:14 -33.51150 149.69228 32217 ft 223 kts 107°
2026-05-05 11:14 -33.51678 149.70993 32221 ft 223 kts 106°
2026-05-05 11:14 -33.52201 149.72734 32221 ft 222 kts 106°
2026-05-05 11:14 -33.52725 149.74483 32225 ft 222 kts 106°
2026-05-05 11:15 -33.53243 149.76221 32225 ft 221 kts 107°
2026-05-05 11:15 -33.53764 149.77960 32228 ft 221 kts 107°
2026-05-05 11:15 -33.54281 149.79684 32225 ft 221 kts 107°
2026-05-05 11:15 -33.54797 149.81407 32222 ft 221 kts 107°
2026-05-05 11:16 -33.55317 149.83148 32223 ft 220 kts 106°
2026-05-05 11:16 -33.55835 149.84883 32225 ft 220 kts 106°
2026-05-05 11:16 -33.56346 149.86600 32230 ft 220 kts 106°
2026-05-05 11:16 -33.56864 149.88341 32227 ft 221 kts 107°
2026-05-05 11:17 -33.57377 149.90062 32226 ft 221 kts 107°
2026-05-05 11:17 -33.57897 149.91797 32226 ft 221 kts 107°
2026-05-05 11:17 -33.58412 149.93527 32230 ft 221 kts 106°
2026-05-05 11:17 -33.58928 149.95262 32234 ft 221 kts 107°
2026-05-05 11:18 -33.59446 149.97005 32231 ft 221 kts 106°
2026-05-05 11:18 -33.59965 149.98752 32228 ft 222 kts 106°
2026-05-05 11:18 -33.60479 150.00479 32232 ft 222 kts 106°
2026-05-05 11:18 -33.61000 150.02235 32223 ft 222 kts 106°
2026-05-05 11:19 -33.61519 150.03989 32226 ft 222 kts 106°
2026-05-05 11:19 -33.62037 150.05736 32221 ft 222 kts 106°
2026-05-05 11:19 -33.62550 150.07466 32223 ft 222 kts 106°
2026-05-05 11:19 -33.63070 150.09222 32227 ft 223 kts 107°
2026-05-05 11:20 -33.63587 150.10969 32223 ft 223 kts 107°
2026-05-05 11:20 -33.64113 150.12736 32223 ft 223 kts 106°
2026-05-05 11:20 -33.64626 150.14475 32224 ft 223 kts 106°
2026-05-05 11:20 -33.65148 150.16237 32227 ft 223 kts 106°
2026-05-05 11:21 -33.65664 150.17981 32233 ft 223 kts 106°
2026-05-05 11:21 -33.66181 150.19742 32231 ft 224 kts 106°
2026-05-05 11:21 -33.66700 150.21500 32227 ft 224 kts 106°
2026-05-05 11:21 -33.67220 150.23270 32227 ft 224 kts 106°
2026-05-05 11:22 -33.67741 150.25038 32222 ft 225 kts 106°
2026-05-05 11:22 -33.68261 150.26807 32228 ft 225 kts 106°
2026-05-05 11:22 -33.68783 150.28577 32225 ft 225 kts 106°
2026-05-05 11:22 -33.69310 150.30364 32226 ft 226 kts 106°
2026-05-05 11:23 -33.69826 150.32121 32223 ft 226 kts 106°
2026-05-05 11:23 -33.70351 150.33911 32225 ft 226 kts 106°
2026-05-05 11:23 -33.70875 150.35693 32230 ft 226 kts 106°
2026-05-05 11:23 -33.71392 150.37451 32232 ft 226 kts 105°
2026-05-05 11:24 -33.71915 150.39239 32233 ft 226 kts 106°
2026-05-05 11:24 -33.72438 150.41026 32227 ft 227 kts 106°
2026-05-05 11:24 -33.72963 150.42819 32226 ft 227 kts 106°
2026-05-05 11:24 -33.73485 150.44612 32225 ft 227 kts 105°
2026-05-05 11:25 -33.73999 150.46378 32223 ft 227 kts 105°
2026-05-05 11:25 -33.74524 150.48184 32225 ft 227 kts 105°
2026-05-05 11:25 -33.75048 150.49976 32220 ft 227 kts 105°
2026-05-05 11:25 -33.75573 150.51775 32221 ft 227 kts 105°
2026-05-05 11:26 -33.76091 150.53554 32221 ft 228 kts 105°
2026-05-05 11:26 -33.76615 150.55356 32223 ft 228 kts 105°
2026-05-05 11:26 -33.77138 150.57150 32225 ft 228 kts 105°
2026-05-05 11:26 -33.77667 150.58963 32223 ft 228 kts 105°
2026-05-05 11:27 -33.78189 150.60757 32225 ft 229 kts 105°
2026-05-05 11:27 -33.78713 150.62555 32223 ft 229 kts 105°
2026-05-05 11:27 -33.79243 150.64366 32221 ft 229 kts 105°
2026-05-05 11:27 -33.79772 150.66187 32213 ft 229 kts 105°
2026-05-05 11:28 -33.80179 150.68008 32210 ft 222 kts 91°
2026-05-05 11:28 -33.80710 150.69792 32219 ft 226 kts 109°
2026-05-05 11:28 -33.81332 150.71526 32180 ft 228 kts 129°
2026-05-05 11:28 -33.81923 150.73178 32318 ft 211 kts 98°
2026-05-05 11:29 -33.82342 150.74922 32223 ft 218 kts 102°
2026-05-05 11:29 -33.82817 150.76668 32210 ft 220 kts 103°
2026-05-05 11:29 -33.83312 150.78406 32208 ft 221 kts 104°
2026-05-05 11:29 -33.83823 150.80170 32207 ft 222 kts 104°
2026-05-05 11:30 -33.84332 150.81934 32202 ft 224 kts 104°
2026-05-05 11:30 -33.84840 150.83693 32201 ft 225 kts 104°
2026-05-05 11:30 -33.85358 150.85486 32202 ft 225 kts 104°
2026-05-05 11:30 -33.85871 150.87265 32203 ft 226 kts 104°
2026-05-05 11:31 -33.86385 150.89050 32203 ft 227 kts 104°
2026-05-05 11:31 -33.86901 150.90840 32202 ft 227 kts 104°
2026-05-05 11:31 -33.87422 150.92651 32205 ft 228 kts 104°
2026-05-05 11:31 -33.87940 150.94452 32201 ft 229 kts 103°
2026-05-05 11:32 -33.88456 150.96246 32194 ft 229 kts 104°
2026-05-05 11:32 -33.88979 150.98067 32195 ft 230 kts 104°
2026-05-05 11:32 -33.89506 150.99908 32194 ft 230 kts 104°
2026-05-05 11:32 -33.90036 151.01759 31913 ft 245 kts 104°
2026-05-05 11:33 -33.90602 151.03746 31465 ft 258 kts 105°
2026-05-05 11:33 -33.91206 151.05846 31006 ft 268 kts 106°
2026-05-05 11:33 -33.91815 151.07968 30551 ft 273 kts 106°
2026-05-05 11:33 -33.92437 151.10135 30074 ft 277 kts 106°
2026-05-05 11:34 -33.93059 151.12305 29668 ft 275 kts 106°
2026-05-05 11:34 -33.94065 151.14237 29270 ft 271 kts 143°
2026-05-05 11:34 -33.95587 151.15448 28981 ft 262 kts 153°
2026-05-05 11:34 -33.97158 151.16577 28625 ft 259 kts 153°
2026-05-05 11:35 -33.98797 151.17274 28199 ft 244 kts 187°
2026-05-05 11:35 -34.00290 151.16693 27823 ft 217 kts 227°
2026-05-05 11:35 -34.01003 151.15251 27446 ft 195 kts 267°
2026-05-05 11:35 -34.00669 151.13771 27036 ft 190 kts 307°
2026-05-05 11:36 -33.99501 151.13032 26618 ft 200 kts 345°
2026-05-05 11:36 -33.98093 151.12926 26254 ft 202 kts 351°
2026-05-05 11:36 -33.96699 151.12903 25870 ft 202 kts 352°
2026-05-05 11:36 -33.95293 151.12883 25477 ft 202 kts 352°
2026-05-05 11:37 -33.93889 151.12857 25093 ft 201 kts 352°
2026-05-05 11:37 -33.92484 151.12831 24723 ft 200 kts 352°
2026-05-05 11:37 -33.91115 151.12796 24359 ft 199 kts 352°
2026-05-05 11:37 -33.89711 151.12746 23969 ft 200 kts 352°
2026-05-05 11:38 -33.88326 151.12683 23607 ft 200 kts 352°
2026-05-05 11:38 -33.86951 151.12614 23272 ft 198 kts 352°
2026-05-05 11:38 -33.85572 151.12537 22928 ft 197 kts 352°
2026-05-05 11:38 -33.84206 151.12459 22594 ft 196 kts 352°
2026-05-05 11:39 -33.82840 151.12373 22258 ft 195 kts 352°
2026-05-05 11:39 -33.81486 151.12286 21921 ft 195 kts 352°
2026-05-05 11:39 -33.80146 151.12198 21592 ft 194 kts 352°
2026-05-05 11:39 -33.78784 151.12108 21263 ft 194 kts 352°
2026-05-05 11:40 -33.77439 151.12016 20935 ft 193 kts 352°
2026-05-05 11:40 -33.76167 151.11658 20581 ft 186 kts 320°
2026-05-05 11:40 -33.75584 151.10361 20259 ft 184 kts 274°
2026-05-05 11:40 -33.75843 151.08858 19914 ft 188 kts 242°
2026-05-05 11:41 -33.76910 151.07971 19591 ft 198 kts 194°
2026-05-05 11:41 -33.78262 151.08275 19269 ft 206 kts 151°
2026-05-05 11:41 -33.79431 151.09261 18973 ft 204 kts 144°
2026-05-05 11:41 -33.80465 151.10437 18660 ft 204 kts 133°
2026-05-05 11:42 -33.81419 151.11696 18353 ft 202 kts 133°
2026-05-05 11:42 -33.82350 151.12933 18044 ft 200 kts 133°
2026-05-05 11:42 -33.83287 151.14183 17727 ft 199 kts 133°
2026-05-05 11:42 -33.84206 151.15414 17418 ft 198 kts 133°
2026-05-05 11:43 -33.84998 151.16750 17093 ft 199 kts 107°
2026-05-05 11:43 -33.85273 151.18341 16908 ft 181 kts 99°
2026-05-05 11:43 -33.85460 151.19635 16740 ft 156 kts 99°
2026-05-05 11:43 -33.85648 151.21011 15796 ft 175 kts 99°
2026-05-05 11:44 -33.85842 151.22517 14811 ft 206 kts 98°
2026-05-05 11:44 -33.86053 151.24205 14528 ft 198 kts 99°
2026-05-05 11:44 -33.86251 151.25804 14297 ft 190 kts 99°
2026-05-05 11:44 -33.86438 151.27347 14012 ft 187 kts 99°
2026-05-05 11:45 -33.86621 151.28899 13703 ft 186 kts 99°
2026-05-05 11:45 -33.86774 151.30428 13400 ft 186 kts 90°
2026-05-05 11:45 -33.86643 151.31978 13115 ft 185 kts 83°
2026-05-05 11:45 -33.86486 151.33516 12796 ft 184 kts 83°
2026-05-05 11:46 -33.86332 151.35025 12493 ft 182 kts 83°
2026-05-05 11:46 -33.86182 151.36528 12198 ft 181 kts 83°
2026-05-05 11:46 -33.86033 151.38040 11878 ft 181 kts 83°
2026-05-05 11:46 -33.85889 151.39523 11582 ft 179 kts 83°
2026-05-05 11:47 -33.85753 151.40994 11281 ft 178 kts 85°
2026-05-05 11:47 -33.86105 151.42381 10936 ft 177 kts 130°
2026-05-05 11:47 -33.87138 151.43083 10617 ft 173 kts 173°
2026-05-05 11:47 -33.88311 151.42906 10292 ft 170 kts 196°
2026-05-05 11:48 -33.89607 151.40930 9580 ft 163 kts 277°
2026-05-05 11:48 -33.89263 151.39641 9233 ft 161 kts 291°
2026-05-05 11:48 -33.88831 151.38402 8869 ft 160 kts 292°
2026-05-05 11:49 -33.88308 151.37228 8467 ft 161 kts 314°
2026-05-05 11:49 -33.87300 151.36739 8066 ft 163 kts 358°
2026-05-05 11:49 -33.86251 151.37225 7638 ft 165 kts 41°
2026-05-05 11:49 -33.85753 151.38415 7183 ft 165 kts 85°
2026-05-05 11:50 -33.85882 151.39763 6839 ft 157 kts 101°
2026-05-05 11:50 -33.86098 151.41002 6606 ft 147 kts 102°
2026-05-05 11:50 -33.86319 151.42183 6292 ft 145 kts 102°
2026-05-05 11:50 -33.86544 151.43359 5968 ft 144 kts 103°
2026-05-05 11:51 -33.86998 151.44397 5616 ft 142 kts 140°
2026-05-05 11:51 -33.87891 151.44768 5303 ft 138 kts 183°
2026-05-05 11:51 -33.88745 151.44310 4977 ft 137 kts 225°
2026-05-05 11:51 -33.89122 151.43275 4650 ft 138 kts 259°
2026-05-05 11:52 -33.89240 151.42134 4318 ft 138 kts 259°
2026-05-05 11:52 -33.89365 151.40982 3980 ft 139 kts 259°
2026-05-05 11:52 -33.89484 151.39835 3645 ft 139 kts 260°
2026-05-05 11:52 -33.89596 151.38687 3319 ft 138 kts 260°
2026-05-05 11:53 -33.89709 151.37546 3041 ft 134 kts 260°
2026-05-05 11:53 -33.89808 151.36482 2984 ft 125 kts 259°
2026-05-05 11:53 -33.89900 151.35454 2978 ft 122 kts 260°
2026-05-05 11:53 -33.89990 151.34451 2978 ft 119 kts 260°
2026-05-05 11:54 -33.90080 151.33455 2913 ft 121 kts 260°
2026-05-05 11:54 -33.90281 151.32445 2686 ft 126 kts 245°
2026-05-05 11:54 -33.90598 151.31470 2432 ft 124 kts 244°
2026-05-05 11:54 -33.90909 151.30527 2219 ft 119 kts 245°
2026-05-05 11:55 -33.91166 151.29599 2035 ft 111 kts 248°
2026-05-05 11:55 -33.91371 151.28806 1861 ft 97 kts 248°
2026-05-05 11:55 -33.91572 151.28017 1696 ft 99 kts 248°
2026-05-05 11:55 -33.91771 151.27222 1524 ft 99 kts 250°
2026-05-05 11:56 -33.91956 151.26411 1350 ft 99 kts 250°
2026-05-05 11:56 -33.92143 151.25609 1178 ft 98 kts 250°
2026-05-05 11:56 -33.92331 151.24838 1035 ft 94 kts 248°
2026-05-05 11:56 -33.92522 151.24106 920 ft 89 kts 252°
2026-05-05 11:57 -33.92679 151.23379 814 ft 86 kts 252°
2026-05-05 11:57 -33.92838 151.22691 836 ft 89 kts 252°
2026-05-05 11:57 -33.93025 151.21979 746 ft 87 kts 251°
2026-05-05 11:57 -33.93200 151.21303 586 ft 87 kts 251°
2026-05-05 11:58 -33.93370 151.20625 438 ft 82 kts 252°
2026-05-05 11:58 -33.93525 151.19966 265 ft 80 kts 253°
2026-05-05 11:58 -33.93681 151.19307 152 ft 83 kts 252°
2026-05-05 11:58 -33.93825 151.18695 19 ft 64 kts 254°
2026-05-05 11:59 -33.93901 151.18361 19 ft 24 kts 259°
2026-05-05 11:59 -33.93828 151.18257 19 ft 17 kts 344°
2026-05-05 11:59 -33.93727 151.18269 19 ft 14 kts 69°
2026-05-05 11:59 -33.93697 151.18385 19 ft 14 kts 75°
2026-05-05 12:00 -33.93671 151.18497 19 ft 13 kts 75°
2026-05-05 12:00 -33.93645 151.18600 19 ft 12 kts 67°
2026-05-05 12:00 -33.93571 151.18651 19 ft 11 kts
2026-05-05 12:00 -33.93538 151.18678 19 ft 10 kts 173°
2026-05-05 12:01 -33.93575 151.18619 19 ft 8 kts 246°
2026-05-05 12:01 -33.93584 151.18553 19 ft 7 kts 300°
2026-05-05 12:01 -33.93548 151.18510 19 ft 7 kts 346°
2026-05-05 12:01 -33.93527 151.18503 19 ft 0 kts 18°